Location: Powder Track
(41.8531°N, 72.3584°W)
Time: 18:28:20
(UTC+00:00)

Vanguard 1 Rocket - Pass Details

Date: 08 August 2021
Orbit: 650 x 4226 km, 34.3° (Epoch: 20 September)

Event Time Altitude Azimuth Distance (km) Brightness Sun altitude
Rises 15:01:10 0° 258° (WSW) 8,376 12.1 54.4°
Reaches altitude 10° 15:07:25 10° 257° (WSW) 7,120 11.8 55.3°
Maximum altitude 15:29:13 66° 182° (S) 2,860 11.5 58.2°
Drops below altitude 10° 15:40:39 10° 103° (ESE) 4,030 11.2 59.5°
Sets 15:43:09 0° 101° (E) 4,690 11.4 59.8°
